�������l�o���
Date,Time,MP-1(��Sv/h),MP-2(��Sv/h),MP-3(��Sv/h),MP-4(��Sv/h),MP-5(��Sv/h),MP-6(��Sv/h),MP-7(��Sv/h),MP-8(��Sv/h),����,����(m/s),���J
2018/08/15,00:00,0.839,1.229,0.861,1.529,1.105,0.474,0.827,0.781,��,3.0,��
2018/08/15,00:10,0.836,1.228,0.861,1.531,1.105,0.478,0.827,0.782,��,3.9,��
2018/08/15,00:20,0.837,1.229,0.860,1.529,1.104,0.475,0.827,0.783,��,4.6,��
2018/08/15,00:30,0.836,1.229,0.860,1.530,1.106,0.475,0.826,0.782,��,4.4,��
2018/08/15,00:40,0.837,1.228,0.862,1.533,1.108,0.472,0.826,0.782,��,3.4,��
2018/08/15,00:50,0.837,1.229,0.859,1.531,1.106,0.475,0.826,0.781,��,3.8,��
2018/08/15,01:00,0.838,1.228,0.860,1.530,1.106,0.474,0.826,0.782,��,4.0,��
2018/08/15,01:10,0.837,1.230,0.863,1.532,1.107,0.474,0.827,0.781,��,3.2,��
2018/08/15,01:20,0.839,1.228,0.861,1.535,1.106,0.475,0.827,0.783,��,3.5,��
2018/08/15,01:30,0.836,1.231,0.862,1.534,1.106,0.476,0.827,0.782,��쐼,3.0,��
2018/08/15,01:40,0.839,1.231,0.862,1.532,1.105,0.475,0.826,0.781,��,2.5,��
2018/08/15,01:50,0.840,1.228,0.863,1.533,1.108,0.476,0.826,0.781,��,1.4,��
2018/08/15,02:00,0.837,1.227,0.861,1.532,1.108,0.474,0.827,0.781,��,2.3,��
2018/08/15,02:10,0.838,1.227,0.862,1.533,1.106,0.477,0.826,0.780,��쐼,1.5,��
2018/08/15,02:20,0.837,1.228,0.860,1.533,1.107,0.474,0.827,0.781,���쐼,2.2,��
2018/08/15,02:30,0.838,1.226,0.861,1.534,1.109,0.475,0.825,0.780,���쐼,2.6,��
2018/08/15,02:40,0.839,1.227,0.863,1.534,1.109,0.477,0.826,0.783,���쐼,2.6,��
2018/08/15,02:50,0.838,1.227,0.859,1.532,1.107,0.475,0.825,0.779,���쐼,3.2,��
2018/08/15,03:00,0.838,1.230,0.860,1.531,1.104,0.476,0.825,0.783,�쐼,4.0,��
2018/08/15,03:10,0.837,1.226,0.860,1.532,1.107,0.476,0.826,0.782,�쐼,3.3,��
2018/08/15,03:20,0.841,1.226,0.861,1.535,1.106,0.475,0.825,0.781,�쐼,4.8,��
2018/08/15,03:30,0.837,1.229,0.860,1.532,1.107,0.476,0.824,0.781,�쐼,4.6,��
2018/08/15,03:40,0.837,1.226,0.860,1.534,1.105,0.476,0.825,0.782,�쐼,4.2,��
2018/08/15,03:50,0.837,1.228,0.860,1.530,1.106,0.474,0.826,0.782,���쐼,3.4,��
2018/08/15,04:00,0.837,1.227,0.860,1.532,1.103,0.475,0.826,0.781,���쐼,3.6,��
2018/08/15,04:10,0.838,1.226,0.861,1.530,1.106,0.474,0.825,0.780,�쐼,2.6,��
2018/08/15,04:20,0.841,1.227,0.861,1.532,1.107,0.473,0.826,0.779,�쐼,3.0,��
2018/08/15,04:30,0.838,1.225,0.860,1.532,1.104,0.476,0.825,0.782,��쐼,2.6,��
2018/08/15,04:40,0.838,1.226,0.861,1.533,1.106,0.474,0.825,0.780,�쐼,1.7,��
2018/08/15,04:50,0.838,1.226,0.861,1.531,1.104,0.474,0.824,0.778,��쐼,1.7,��
2018/08/15,05:00,0.837,1.227,0.859,1.529,1.105,0.475,0.826,0.781,��쐼,2.0,��
2018/08/15,05:10,0.837,1.228,0.862,1.532,1.105,0.474,0.825,0.781,��,0.8,��
2018/08/15,05:20,0.838,1.224,0.861,1.531,1.106,0.473,0.824,0.780,�k,0.9,��
2018/08/15,05:30,0.837,1.226,0.860,1.530,1.106,0.475,0.825,0.781,�k��,1.5,��
2018/08/15,05:40,0.838,1.227,0.861,1.532,1.106,0.474,0.828,0.782,�k�k��,1.4,��
2018/08/15,05:50,0.835,1.227,0.861,1.534,1.106,0.474,0.823,0.781,�k�k��,0.8,��
2018/08/15,06:00,0.837,1.225,0.861,1.534,1.107,0.475,0.826,0.779,�k�k��,0.6,��
2018/08/15,06:10,0.836,1.225,0.861,1.530,1.103,0.474,0.826,0.781,���k��,1.9,��
2018/08/15,06:20,0.836,1.228,0.860,1.530,1.104,0.474,0.827,0.783,�k��,2.9,��
2018/08/15,06:30,0.835,1.227,0.860,1.532,1.105,0.476,0.826,0.780,�k��,3.6,��
2018/08/15,06:40,0.838,1.228,0.861,1.531,1.105,0.474,0.826,0.782,�k�k��,1.7,��
2018/08/15,06:50,0.838,1.226,0.860,1.532,1.105,0.475,0.826,0.780,�k�k��,0.9,��
2018/08/15,07:00,0.839,1.227,0.860,1.533,1.106,0.475,0.827,0.781,�k�k��,0.9,��
2018/08/15,07:10,0.839,1.229,0.860,1.535,1.102,0.473,0.826,0.780,�k,0.9,��
2018/08/15,07:20,0.838,1.227,0.860,1.533,1.109,0.475,0.825,0.780,-,CALM,��
2018/08/15,07:30,0.839,1.229,0.862,1.533,1.107,0.475,0.826,0.780,���쓌,0.6,��
2018/08/15,07:40,0.840,1.232,0.862,1.533,1.105,0.476,0.827,0.781,��쓌,0.6,��
2018/08/15,07:50,0.840,1.226,0.861,1.534,1.106,0.474,0.827,0.780,-,CALM,��
2018/08/15,08:00,0.840,1.228,0.860,1.533,1.109,0.473,0.826,0.781,�k�k��,0.9,��
2018/08/15,08:10,0.841,1.228,0.862,1.531,1.105,0.475,0.826,0.781,���k��,0.9,��
2018/08/15,08:20,0.838,1.230,0.863,1.534,1.106,0.473,0.827,0.784,�k�k��,1.5,��
2018/08/15,08:30,0.838,1.228,0.861,1.532,1.106,0.474,0.826,0.783,�k,2.3,��
2018/08/15,08:40,0.837,1.228,0.863,1.533,1.108,0.474,0.826,0.781,�k,2.6,��
2018/08/15,08:50,0.840,1.231,0.862,1.533,1.106,0.475,0.828,0.781,�k�k��,2.3,��
2018/08/15,09:00,0.838,1.229,0.864,1.535,1.109,0.476,0.827,0.780,�k,3.0,��
2018/08/15,09:10,0.840,1.229,0.862,1.536,1.107,0.474,0.830,0.780,�k,3.4,��
2018/08/15,09:20,0.841,1.229,0.861,1.536,1.110,0.475,0.829,0.781,�k�k��,3.5,��
2018/08/15,09:30,0.839,1.232,0.862,1.538,1.109,0.473,0.827,0.780,�k�k��,3.5,��
2018/08/15,09:40,0.840,1.233,0.862,1.536,1.110,0.472,0.828,0.780,�k�k��,3.4,��
2018/08/15,09:50,0.839,1.234,0.861,1.535,1.108,0.474,0.828,0.780,�k��,2.9,��
2018/08/15,10:00,0.841,1.231,0.862,1.537,1.111,0.473,0.826,0.782,�k��,2.3,��
2018/08/15,10:10,0.842,1.234,0.864,1.539,1.111,0.475,0.826,0.782,�k�k��,3.2,��
2018/08/15,10:20,0.840,1.235,0.863,1.539,1.110,0.473,0.827,0.780,�k�k��,2.6,��
2018/08/15,10:30,0.841,1.233,0.864,1.537,1.113,0.473,0.827,0.781,�k,2.9,��
2018/08/15,10:40,0.842,1.236,0.862,1.538,1.111,0.475,0.829,0.779,�k��,2.0,��
2018/08/15,10:50,0.842,1.236,0.863,1.539,1.116,0.474,0.828,0.782,�k��,2.2,��
2018/08/15,11:00,0.843,1.239,0.864,1.539,1.111,0.475,0.829,0.781,�k�k��,2.6,��
2018/08/15,11:10,0.842,1.238,0.862,1.537,1.113,0.473,0.828,0.782,���k��,2.0,��
2018/08/15,11:20,0.842,1.240,0.865,1.536,1.112,0.475,0.827,0.782,�k�k��,2.0,��
2018/08/15,11:30,0.842,1.239,0.866,1.535,1.115,0.474,0.827,0.783,�k�k��,2.0,��
2018/08/15,11:40,0.842,1.240,0.867,1.535,1.114,0.475,0.829,0.781,�k��,1.2,��
2018/08/15,11:50,0.842,1.238,0.868,1.539,1.116,0.475,0.828,0.783,��,1.2,��
2018/08/15,12:00,0.843,1.241,0.866,1.536,1.118,0.475,0.829,0.785,��쓌,1.7,��
2018/08/15,12:10,0.844,1.238,0.867,1.539,1.118,0.472,0.829,0.782,��쓌,2.0,��
2018/08/15,12:20,0.842,1.236,0.867,1.536,1.117,0.475,0.826,0.782,��쓌,1.2,�L
2018/08/15,12:30,0.844,1.240,0.867,1.539,1.116,0.474,0.830,0.783,�쓌,1.4,��
2018/08/15,12:40,0.841,1.237,0.866,1.538,1.117,0.473,0.827,0.782,�쓌,0.6,��
2018/08/15,12:50,0.843,1.239,0.866,1.538,1.117,0.475,0.828,0.781,�쓌,0.9,��
2018/08/15,13:00,0.843,1.241,0.864,1.539,1.119,0.473,0.827,0.783,���쓌,1.2,��
2018/08/15,13:10,0.844,1.239,0.865,1.540,1.116,0.473,0.828,0.781,��쓌,1.4,�L
2018/08/15,13:20,0.844,1.239,0.866,1.538,1.118,0.473,0.828,0.783,��,1.2,�L
2018/08/15,13:30,0.842,1.240,0.867,1.539,1.118,0.474,0.829,0.782,��,1.5,��
2018/08/15,13:40,0.844,1.240,0.866,1.541,1.120,0.476,0.830,0.782,��,1.7,��
2018/08/15,13:50,0.846,1.238,0.867,1.546,1.121,0.475,0.829,0.784,��쐼,1.5,��
2018/08/15,14:00,0.843,1.237,0.869,1.541,1.118,0.475,0.831,0.783,��쓌,1.5,��
2018/08/15,14:10,0.845,1.238,0.869,1.543,1.121,0.474,0.833,0.782,��쓌,2.8,��
2018/08/15,14:20,0.845,1.240,0.868,1.543,1.120,0.475,0.831,0.781,��쓌,3.6,��
2018/08/15,14:30,0.845,1.241,0.868,1.541,1.120,0.475,0.831,0.781,��쓌,4.4,��
2018/08/15,14:40,0.844,1.242,0.869,1.543,1.119,0.474,0.830,0.783,��쓌,5.6,��
2018/08/15,14:50,0.845,1.241,0.870,1.540,1.121,0.475,0.832,0.786,��,6.3,��
2018/08/15,15:00,0.843,1.239,0.868,1.542,1.120,0.475,0.832,0.784,��,6.6,��
2018/08/15,15:10,0.844,1.240,0.868,1.541,1.119,0.474,0.833,0.784,��,6.9,��
2018/08/15,15:20,0.847,1.244,0.868,1.541,1.123,0.474,0.832,0.786,��,6.4,��
2018/08/15,15:30,0.845,1.241,0.870,1.541,1.122,0.473,0.832,0.783,��,8.3,��
2018/08/15,15:40,0.847,1.243,0.867,1.540,1.121,0.474,0.832,0.783,��,9.2,��
2018/08/15,15:50,0.847,1.241,0.869,1.541,1.123,0.475,0.833,0.781,��,8.5,��
2018/08/15,16:00,0.845,1.240,0.870,1.542,1.121,0.473,0.832,0.781,��,9.1,��
2018/08/15,16:10,0.847,1.240,0.867,1.541,1.121,0.472,0.832,0.784,��,7.5,��
2018/08/15,16:20,0.846,1.244,0.868,1.542,1.121,0.473,0.831,0.784,��,8.7,��
2018/08/15,16:30,0.845,1.240,0.869,1.545,1.122,0.473,0.833,0.782,��,8.5,��
2018/08/15,16:40,0.846,1.240,0.870,1.545,1.121,0.474,0.831,0.782,��,8.0,��
2018/08/15,16:50,0.846,1.239,0.868,1.546,1.121,0.473,0.829,0.783,��,6.2,��
2018/08/15,17:00,0.844,1.243,0.870,1.546,1.121,0.473,0.831,0.785,��,6.3,��
2018/08/15,17:10,0.846,1.241,0.868,1.543,1.123,0.474,0.830,0.783,��,7.7,��
2018/08/15,17:20,0.846,1.241,0.867,1.545,1.119,0.473,0.829,0.783,��,6.3,��
2018/08/15,17:30,0.846,1.240,0.867,1.544,1.121,0.472,0.830,0.783,��,6.4,��
2018/08/15,17:40,0.845,1.239,0.868,1.545,1.124,0.473,0.832,0.784,��쐼,3.5,��
2018/08/15,17:50,0.846,1.241,0.869,1.543,1.120,0.473,0.830,0.785,�쐼,2.0,��
2018/08/15,18:00,0.847,1.242,0.868,1.545,1.121,0.474,0.830,0.784,��쐼,4.4,��
2018/08/15,18:10,0.846,1.241,0.869,1.543,1.123,0.473,0.828,0.784,��,4.0,��
2018/08/15,18:20,0.847,1.241,0.870,1.545,1.122,0.473,0.829,0.783,��쐼,5.3,��
2018/08/15,18:30,0.844,1.242,0.870,1.544,1.123,0.474,0.829,0.783,��쐼,6.8,��
2018/08/15,18:40,0.847,1.242,0.868,1.543,1.121,0.472,0.830,0.784,��쐼,7.3,��
2018/08/15,18:50,0.846,1.242,0.868,1.544,1.121,0.474,0.830,0.784,��,6.9,��
2018/08/15,19:00,0.845,1.242,0.865,1.547,1.119,0.472,0.831,0.782,��,6.4,��
2018/08/15,19:10,0.847,1.242,0.869,1.545,1.118,0.473,0.830,0.785,��,6.6,��
2018/08/15,19:20,0.846,1.240,0.867,1.544,1.121,0.473,0.831,0.784,��,7.4,��
2018/08/15,19:30,0.846,1.243,0.868,1.544,1.120,0.474,0.830,0.783,��,7.5,��
2018/08/15,19:40,0.846,1.242,0.869,1.546,1.121,0.473,0.831,0.784,��,5.8,��
2018/08/15,19:50,0.844,1.241,0.866,1.544,1.122,0.472,0.829,0.784,��,4.6,��
2018/08/15,20:00,0.844,1.241,0.870,1.543,1.120,0.473,0.830,0.785,��,5.5,��
2018/08/15,20:10,0.848,1.240,0.867,1.545,1.121,0.473,0.829,0.785,��,5.9,��
2018/08/15,20:20,0.846,1.242,0.867,1.544,1.119,0.474,0.830,0.784,��,6.8,��
2018/08/15,20:30,0.847,1.241,0.867,1.543,1.120,0.473,0.832,0.784,��,5.2,�L
2018/08/15,20:40,0.846,1.240,0.868,1.543,1.121,0.473,0.829,0.783,��,1.2,�L
2018/08/15,20:50,0.846,1.240,0.865,1.542,1.122,0.474,0.830,0.782,��쐼,2.6,�L
2018/08/15,21:00,0.848,1.242,0.870,1.547,1.122,0.473,0.830,0.784,�쐼,1.7,�L
2018/08/15,21:10,0.849,1.242,0.867,1.543,1.121,0.474,0.830,0.782,�쐼,1.4,��
2018/08/15,21:20,0.847,1.244,0.870,1.545,1.122,0.476,0.830,0.784,��,2.9,��
2018/08/15,21:30,0.847,1.241,0.868,1.546,1.119,0.474,0.829,0.783,��,3.4,�L
2018/08/15,21:40,0.845,1.237,0.868,1.543,1.119,0.476,0.829,0.782,��쐼,4.7,�L
2018/08/15,21:50,0.846,1.242,0.869,1.544,1.122,0.473,0.830,0.783,��쐼,4.1,�L
2018/08/15,22:00,0.847,1.242,0.867,1.545,1.121,0.475,0.831,0.782,��,2.2,�L
2018/08/15,22:10,0.845,1.240,0.871,1.547,1.124,0.475,0.831,0.784,��,4.1,�L
2018/08/15,22:20,0.845,1.241,0.869,1.543,1.121,0.476,0.829,0.784,��,5.0,��
2018/08/15,22:30,0.845,1.238,0.867,1.542,1.119,0.473,0.830,0.783,��,5.0,��
2018/08/15,22:40,0.845,1.241,0.868,1.546,1.120,0.474,0.830,0.784,��,5.4,��
2018/08/15,22:50,0.845,1.239,0.870,1.543,1.120,0.474,0.832,0.784,��,4.7,��
2018/08/15,23:00,0.845,1.241,0.866,1.543,1.119,0.475,0.829,0.784,��,5.9,��
2018/08/15,23:10,0.845,1.240,0.869,1.545,1.120,0.474,0.830,0.785,��,6.7,��
2018/08/15,23:20,0.845,1.239,0.868,1.543,1.120,0.474,0.831,0.784,��,6.6,��
2018/08/15,23:30,0.846,1.241,0.869,1.542,1.120,0.475,0.831,0.786,��,5.9,��
2018/08/15,23:40,0.846,1.240,0.869,1.544,1.121,0.474,0.830,0.785,��,5.4,��
2018/08/15,23:50,0.846,1.239,0.868,1.544,1.119,0.474,0.829,0.784,��,6.3,��
